| time (UTC) | temp C | wind direction | speed KPH | gust KPH | rain 1hr cm | rain 24hr cm | rain mn cm | humidity % | barometer mb |
| 20260510083149 | 21 | 276 | 1.6 | 3.2 | 0.00 | 0.00 | 0.00 | 89 | 1010.3 |
| 20260510082645 | 21 | 102 | 1.6 | 3.2 | 0.00 | 0.00 | 0.00 | 89 | 1010.2 |
| 20260510082140 | 21 | 182 | 3.2 | 3.2 | 0.00 | 0.00 | 0.00 | 88 | 1010.2 |
| 20260510081636 | 21 | 105 | 1.6 | 3.2 | 0.00 | 0.00 | 0.00 | 88 | 1010.3 |
| 20260510081132 | 21 | 117 | 3.2 | 3.2 | 0.00 | 0.00 | 0.00 | 88 | 1010.2 |
| 20260510080631 | 21 | 97 | 3.2 | 3.2 | 0.00 | 0.00 | 0.00 | 88 | 1010.2 |
| 20260510080128 | 21 | 107 | 1.6 | 1.6 | 0.00 | 0.00 | 0.00 | 88 | 1010.3 |
| 20260510075625 | 21 | 141 | 3.2 | 4.8 | 0.00 | 0.00 | 0.00 | 88 | 1010.1 |
| 20260510075122 | 21 | 106 | 1.6 | 3.2 | 0.00 | 0.00 | 0.00 | 88 | 1010.1 |
| 20260510074619 | 21 | 122 | 3.2 | 3.2 | 0.00 | 0.00 | 0.00 | 88 | 1010.3 |
| 20260510074115 | 21 | 115 | 3.2 | 3.2 | 0.00 | 0.00 | 0.00 | 87 | 1010.2 |
| 20260510073611 | 21 | 108 | 3.2 | 3.2 | 0.00 | 0.00 | 0.00 | 87 | 1010.1 |
| 20260510073109 | 21 | 161 | 4.8 | 4.8 | 0.00 | 0.00 | 0.00 | 87 | 1010.2 |
| 20260510072605 | 21 | 135 | 3.2 | 3.2 | 0.00 | 0.00 | 0.00 | 87 | 1010.1 |
| 20260510072101 | 22 | 130 | 1.6 | 3.2 | 0.00 | 0.00 | 0.00 | 88 | 1010.2 |
| 20260510071557 | 22 | 88 | 1.6 | 1.6 | 0.00 | 0.00 | 0.00 | 88 | 1010.2 |
| 20260510071055 | 22 | 106 | 3.2 | 3.2 | 0.00 | 0.00 | 0.00 | 88 | 1010.1 |
| 20260510070551 | 22 | 123 | 1.6 | 3.2 | 0.00 | 0.00 | 0.00 | 88 | 1010.3 |
| 20260510070049 | 22 | 218 | 3.2 | 4.8 | 0.00 | 0.00 | 0.00 | 88 | 1010.2 |
| 20260510065545 | 22 | 214 | 4.8 | 8.0 | 0.00 | 0.00 | 0.00 | 88 | 1010.2 |
| 20260510065041 | 22 | 165 | 1.6 | 3.2 | 0.00 | 0.00 | 0.00 | 89 | 1010.2 |
| 20260510064538 | 22 | 117 | 4.8 | 8.0 | 0.00 | 0.00 | 0.00 | 89 | 1010.2 |
| 20260510064034 | 22 | 94 | 3.2 | 3.2 | 0.00 | 0.00 | 0.00 | 89 | 1010.2 |
| 20260510063531 | 22 | 94 | 1.6 | 1.6 | 0.00 | 0.00 | 0.00 | 89 | 1010.4 |
| 20260510063029 | 22 | 185 | 4.8 | 4.8 | 0.00 | 0.00 | 0.00 | 90 | 1010.2 |
| 20260510062524 | 22 | 129 | 4.8 | 4.8 | 0.00 | 0.00 | 0.00 | 90 | 1010.1 |
| 20260510062019 | 22 | 127 | 1.6 | 3.2 | 0.00 | 0.00 | 0.00 | 90 | 1010.1 |
| 20260510061516 | 22 | 157 | 4.8 | 4.8 | 0.00 | 0.00 | 0.00 | 90 | 1010.0 |
| 20260510061013 | 22 | 96 | 1.6 | 1.6 | 0.00 | 0.00 | 0.00 | 90 | 1010.2 |
| 20260510060510 | 22 | 185 | 1.6 | 3.2 | 0.00 | 0.00 | 0.00 | 90 | 1010.2 |
| 20260510060006 | 22 | 141 | 3.2 | 3.2 | 0.00 | 0.00 | 0.00 | 90 | 1010.3 |
| 20260510055502 | 22 | 78 | 1.6 | 3.2 | 0.00 | 0.00 | 0.00 | 90 | 1010.2 |
| 20260510055000 | 22 | 82 | 0.0 | 1.6 | 0.00 | 0.00 | 0.00 | 89 | 1010.1 |
| 20260510054455 | 22 | 97 | 1.6 | 3.2 | 0.00 | 0.00 | 0.00 | 89 | 1010.3 |
| 20260510053950 | 22 | 133 | 3.2 | 3.2 | 0.00 | 0.00 | 0.00 | 88 | 1010.2 |
| 20260510053446 | 22 | 94 | 1.6 | 1.6 | 0.00 | 0.00 | 0.00 | 88 | 1010.1 |
| 20260510052942 | 22 | 102 | 1.6 | 1.6 | 0.00 | 0.00 | 0.00 | 88 | 1010.3 |
| 20260510052438 | 22 | 92 | 3.2 | 3.2 | 0.00 | 0.00 | 0.00 | 88 | 1010.3 |
| 20260510051935 | 22 | 82 | 0.0 | 1.6 | 0.00 | 0.00 | 0.00 | 87 | 1010.3 |
| 20260510051431 | 22 | 90 | 1.6 | 1.6 | 0.00 | 0.00 | 0.00 | 87 | 1010.3 |
| 20260510050927 | 22 | 90 | 1.6 | 1.6 | 0.00 | 0.00 | 0.00 | 86 | 1010.1 |
| 20260510050424 | 22 | 85 | 0.0 | 0.0 | 0.00 | 0.00 | 0.00 | 86 | 1010.2 |
| 20260510045921 | 23 | 89 | 0.0 | 1.6 | 0.00 | 0.03 | 0.03 | 86 | 1010.1 |
| 20260510045419 | 23 | 80 | 0.0 | 1.6 | 0.00 | 0.03 | 0.03 | 86 | 1010.0 |
| 20260510044915 | 23 | 95 | 1.6 | 3.2 | 0.00 | 0.03 | 0.03 | 86 | 1009.8 |
| 20260510044412 | 23 | 83 | 1.6 | 1.6 | 0.00 | 0.03 | 0.03 | 86 | 1009.8 |
| 20260510043909 | 23 | 130 | 1.6 | 1.6 | 0.00 | 0.03 | 0.03 | 86 | 1010.0 |
| 20260510043405 | 23 | 111 | 0.0 | 1.6 | 0.00 | 0.03 | 0.03 | 86 | 1009.7 |
| 20260510042903 | 23 | 74 | 0.0 | 0.0 | 0.00 | 0.03 | 0.03 | 86 | 1009.7 |
| 20260510042359 | 23 | 74 | 0.0 | 0.0 | 0.00 | 0.03 | 0.03 | 85 | 1010.0 |
| 20260510041855 | 23 | 73 | 0.0 | 0.0 | 0.00 | 0.03 | 0.03 | 84 | 1009.8 |
| 20260510041352 | 23 | 73 | 1.6 | 1.6 | 0.00 | 0.03 | 0.03 | 85 | 1009.6 |
| 20260510040849 | 23 | 73 | 0.0 | 0.0 | 0.00 | 0.03 | 0.03 | 84 | 1009.6 |
| 20260510040346 | 23 | 73 | 0.0 | 0.0 | 0.00 | 0.03 | 0.03 | 84 | 1009.8 |
| 20260510035842 | 23 | 73 | 0.0 | 0.0 | 0.00 | 0.03 | 0.03 | 84 | 1009.6 |
| 20260510035338 | 23 | 74 | 0.0 | 0.0 | 0.00 | 0.03 | 0.03 | 84 | 1009.5 |
| 20260510034833 | 23 | 76 | 0.0 | 0.0 | 0.00 | 0.03 | 0.03 | 84 | 1009.6 |
| 20260510034332 | 23 | 76 | 0.0 | 0.0 | 0.00 | 0.03 | 0.03 | 84 | 1009.7 |
| 20260510033828 | 23 | 76 | 0.0 | 0.0 | 0.00 | 0.03 | 0.03 | 83 | 1009.4 |
| 20260510033325 | 23 | 76 | 0.0 | 0.0 | 0.00 | 0.03 | 0.03 | 83 | 1009.3 |
| 20260510032821 | 23 | 76 | 0.0 | 0.0 | 0.00 | 0.03 | 0.03 | 82 | 1009.3 |
| 20260510032318 | 24 | 76 | 0.0 | 0.0 | 0.00 | 0.03 | 0.03 | 82 | 1009.5 |
| 20260510031814 | 24 | 78 | 0.0 | 0.0 | 0.00 | 0.03 | 0.03 | 81 | 1009.3 |
| 20260510031309 | 24 | 78 | 0.0 | 0.0 | 0.00 | 0.03 | 0.03 | 81 | 1009.3 |
| 20260510030803 | 24 | 78 | 0.0 | 1.6 | 0.00 | 0.03 | 0.03 | 81 | 1009.1 |
| 20260510030300 | 24 | 78 | 0.0 | 0.0 | 0.00 | 0.03 | 0.03 | 80 | 1009.2 |
| 20260510025757 | 24 | 78 | 0.0 | 0.0 | 0.00 | 0.03 | 0.03 | 80 | 1009.1 |
| 20260510025255 | 25 | 78 | 0.0 | 0.0 | 0.00 | 0.03 | 0.03 | 80 | 1009.0 |
| 20260510024751 | 25 | 78 | 0.0 | 0.0 | 0.00 | 0.03 | 0.03 | 79 | 1008.9 |
| 20260510024248 | 25 | 78 | 0.0 | 0.0 | 0.00 | 0.03 | 0.03 | 79 | 1008.8 |
| 20260510023744 | 25 | 78 | 0.0 | 0.0 | 0.00 | 0.03 | 0.03 | 79 | 1008.8 |
| 20260510023241 | 25 | 78 | 0.0 | 0.0 | 0.00 | 0.03 | 0.03 | 78 | 1008.8 |
| 20260510022737 | 25 | 78 | 1.6 | 1.6 | 0.00 | 0.03 | 0.03 | 78 | 1008.6 |
| 20260510022232 | 25 | 85 | 1.6 | 1.6 | 0.00 | 0.03 | 0.03 | 77 | 1008.8 |
| 20260510021726 | 25 | 93 | 1.6 | 1.6 | 0.00 | 0.03 | 0.03 | 77 | 1008.9 |
| 20260510021225 | 25 | 140 | 3.2 | 4.8 | 0.00 | 0.03 | 0.03 | 76 | 1008.7 |
| 20260510020725 | 25 | 123 | 3.2 | 3.2 | 0.00 | 0.03 | 0.03 | 76 | 1008.7 |
| 20260510020220 | 25 | 158 | 4.8 | 4.8 | 0.00 | 0.03 | 0.03 | 76 | 1008.6 |
| 20260510015716 | 25 | 131 | 3.2 | 3.2 | 0.00 | 0.03 | 0.03 | 76 | 1008.7 |
| 20260510015212 | 25 | 100 | 1.6 | 1.6 | 0.00 | 0.03 | 0.03 | 75 | 1008.5 |
| 20260510014707 | 25 | 96 | 1.6 | 3.2 | 0.00 | 0.03 | 0.03 | 74 | 1008.6 |
| 20260510014206 | 25 | 132 | 4.8 | 8.0 | 0.00 | 0.03 | 0.03 | 73 | 1008.6 |
| 20260510013700 | 25 | 137 | 4.8 | 4.8 | 0.00 | 0.03 | 0.03 | 72 | 1008.3 |
| 20260510013156 | 26 | 100 | 3.2 | 4.8 | 0.00 | 0.03 | 0.03 | 70 | 1008.3 |
| 20260510012656 | 26 | 101 | 1.6 | 1.6 | 0.00 | 0.03 | 0.03 | 69 | 1008.2 |
| 20260510012151 | 26 | 108 | 3.2 | 3.2 | 0.00 | 0.03 | 0.03 | 68 | 1008.2 |
| 20260510011646 | 26 | 124 | 4.8 | 8.0 | 0.00 | 0.03 | 0.03 | 66 | 1008.1 |
| 20260510011143 | 26 | 102 | 1.6 | 3.2 | 0.00 | 0.03 | 0.03 | 64 | 1007.9 |
| 20260510010638 | 26 | 77 | 3.2 | 4.8 | 0.00 | 0.03 | 0.03 | 62 | 1007.9 |
| 20260510010136 | 26 | 105 | 1.6 | 1.6 | 0.00 | 0.03 | 0.03 | 61 | 1007.8 |
| 20260510005631 | 27 | 159 | 3.2 | 4.8 | 0.00 | 0.03 | 0.03 | 62 | 1007.7 |
| 20260510005129 | 27 | 91 | 3.2 | 4.8 | 0.00 | 0.03 | 0.03 | 61 | 1007.7 |
| 20260510004627 | 27 | 138 | 3.2 | 4.8 | 0.00 | 0.03 | 0.03 | 60 | 1007.6 |
| 20260510004125 | 27 | 146 | 3.2 | 3.2 | 0.00 | 0.03 | 0.03 | 61 | 1007.6 |
| 20260510003622 | -17 | 0.0 | 0.0 | 0.00 | 0.00 | 0.00 | 1007.5 | ||
| 20260510003118 | 27 | 101 | 1.6 | 1.6 | 0.00 | 0.03 | 0.03 | 60 | 1007.5 |
| 20260510002617 | 27 | 101 | 1.6 | 1.6 | 0.00 | 0.03 | 0.03 | 60 | 1007.4 |
| 20260510002115 | -17 | 0.0 | 0.0 | 0.00 | 0.00 | 0.00 | 1007.5 | ||
| 20260510001612 | 28 | 151 | 4.8 | 4.8 | 0.00 | 0.03 | 0.03 | 60 | 1007.4 |
| 20260510001111 | 28 | 151 | 4.8 | 4.8 | 0.00 | 0.03 | 0.03 | 60 | 1007.2 |
| 20260510000611 | 28 | 149 | 3.2 | 4.8 | 0.00 | 0.03 | 0.03 | 60 | 1007.3 |
| 20260510000108 | 28 | 146 | 4.8 | 4.8 | 0.00 | 0.03 | 0.03 | 60 | 1007.3 |
| 20260509235604 | 28 | 106 | 1.6 | 1.6 | 0.00 | 0.03 | 0.03 | 62 | 1007.2 |
| 20260509235102 | 28 | 91 | 1.6 | 1.6 | 0.00 | 0.03 | 0.03 | 65 | 1007.2 |
| 20260509234558 | 28 | 123 | 1.6 | 3.2 | 0.00 | 0.03 | 0.03 | 64 | 1007.2 |
| 20260509234055 | 28 | 139 | 3.2 | 3.2 | 0.00 | 0.03 | 0.03 | 63 | 1006.9 |
| 20260509233553 | 28 | 108 | 1.6 | 3.2 | 0.00 | 0.03 | 0.03 | 63 | 1006.9 |
| 20260509233050 | 28 | 135 | 3.2 | 3.2 | 0.00 | 0.03 | 0.03 | 63 | 1007.2 |
| 20260509232546 | 28 | 154 | 4.8 | 9.7 | 0.00 | 0.03 | 0.03 | 65 | 1006.9 |
| 20260509232043 | 28 | 96 | 4.8 | 8.0 | 0.00 | 0.03 | 0.03 | 65 | 1007.2 |
| 20260509231539 | 28 | 139 | 4.8 | 4.8 | 0.00 | 0.03 | 0.03 | 64 | 1007.1 |
| 20260509231037 | 28 | 180 | 3.2 | 3.2 | 0.00 | 0.03 | 0.03 | 65 | 1007.2 |
| 20260509230533 | 27 | 173 | 3.2 | 3.2 | 0.00 | 0.03 | 0.03 | 67 | 1006.9 |
| 20260509230031 | 27 | 117 | 4.8 | 4.8 | 0.00 | 0.03 | 0.03 | 67 | 1006.9 |
| 20260509225526 | 27 | 161 | 4.8 | 8.0 | 0.00 | 0.03 | 0.03 | 65 | 1007.2 |
| 20260509225022 | 28 | 104 | 8.0 | 16.1 | 0.00 | 0.03 | 0.03 | 63 | 1007.1 |
| 20260509224518 | 28 | 103 | 3.2 | 4.8 | 0.00 | 0.03 | 0.03 | 65 | 1007.3 |
| 20260509224015 | 27 | 142 | 6.4 | 8.0 | 0.00 | 0.03 | 0.03 | 67 | 1006.9 |
| 20260509223512 | 27 | 49 | 4.8 | 4.8 | 0.00 | 0.03 | 0.03 | 69 | 1007.1 |
| 20260509223010 | 27 | 131 | 6.4 | 9.7 | 0.00 | 0.03 | 0.03 | 65 | 1007.2 |
| 20260509222505 | 28 | 122 | 6.4 | 9.7 | 0.00 | 0.03 | 0.03 | 62 | 1007.2 |
| 20260509222001 | 28 | 161 | 4.8 | 8.0 | 0.00 | 0.03 | 0.03 | 64 | 1007.3 |
| 20260509221457 | 30 | 16 | 1.6 | 3.2 | 0.00 | 0.03 | 0.03 | 61 | 1007.2 |
| 20260509220953 | 33 | 148 | 3.2 | 3.2 | 0.00 | 0.03 | 0.03 | 54 | 1007.1 |
| 20260509220449 | 35 | 59 | 1.6 | 1.6 | 0.00 | 0.03 | 0.03 | 51 | 1007.2 |
| 20260509215945 | 35 | 43 | 1.6 | 3.2 | 0.00 | 0.03 | 0.03 | 49 | 1006.9 |
| 20260509215441 | 34 | 109 | 3.2 | 3.2 | 0.00 | 0.03 | 0.03 | 51 | 1006.9 |
| 20260509214939 | 33 | 60 | 1.6 | 3.2 | 0.00 | 0.03 | 0.03 | 52 | 1007.1 |
| 20260509214436 | 35 | 146 | 4.8 | 4.8 | 0.00 | 0.03 | 0.03 | 49 | 1007.2 |
| 20260509213932 | 35 | 249 | 1.6 | 3.2 | 0.00 | 0.03 | 0.03 | 46 | 1007.1 |
| 20260509213428 | 34 | 164 | 3.2 | 3.2 | 0.00 | 0.03 | 0.03 | 49 | 1007.1 |
| 20260509212926 | 35 | 104 | 1.6 | 3.2 | 0.00 | 0.03 | 0.03 | 50 | 1006.9 |
| 20260509212423 | 33 | 66 | 0.0 | 1.6 | 0.00 | 0.03 | 0.03 | 50 | 1007.3 |
| 20260509211919 | 33 | 185 | 1.6 | 3.2 | 0.00 | 0.03 | 0.03 | 51 | 1007.3 |
| 20260509211415 | 32 | 212 | 4.8 | 4.8 | 0.00 | 0.03 | 0.03 | 54 | 1007.3 |
| 20260509210911 | 33 | 2 | 4.8 | 4.8 | 0.00 | 0.03 | 0.03 | 52 | 1007.4 |
| 20260509210409 | 33 | 247 | 3.2 | 3.2 | 0.00 | 0.03 | 0.03 | 51 | 1007.3 |
| 20260509205904 | 33 | 287 | 1.6 | 3.2 | 0.00 | 0.03 | 0.03 | 53 | 1007.3 |
| 20260509205403 | 32 | 213 | 0.0 | 1.6 | 0.00 | 0.03 | 0.03 | 54 | 1007.5 |
| 20260509204900 | 31 | 71 | 1.6 | 1.6 | 0.00 | 0.03 | 0.03 | 56 | 1007.5 |
| 20260509204356 | 32 | 312 | 3.2 | 4.8 | 0.00 | 0.03 | 0.03 | 54 | 1007.6 |
| 20260509203853 | 32 | 94 | 1.6 | 3.2 | 0.00 | 0.03 | 0.03 | 54 | 1008.0 |
| 20260509203349 | 32 | 194 | 3.2 | 4.8 | 0.00 | 0.03 | 0.03 | 55 | 1007.8 |
| 20260509202846 | 32 | 316 | 1.6 | 1.6 | 0.00 | 0.03 | 0.03 | 54 | 1007.7 |
| 20260509202342 | 32 | 95 | 1.6 | 3.2 | 0.00 | 0.03 | 0.03 | 54 | 1007.8 |
| 20260509201837 | 31 | 165 | 1.6 | 1.6 | 0.00 | 0.03 | 0.03 | 59 | 1008.1 |
| 20260509201333 | 31 | 173 | 6.4 | 9.7 | 0.00 | 0.03 | 0.03 | 57 | 1008.2 |
| 20260509200830 | 32 | 311 | 0.0 | 1.6 | 0.00 | 0.03 | 0.03 | 54 | 1008.0 |
| 20260509200325 | 33 | 71 | 1.6 | 1.6 | 0.00 | 0.03 | 0.03 | 55 | 1008.2 |
| 20260509195822 | 32 | 51 | 0.0 | 0.0 | 0.00 | 0.03 | 0.03 | 54 | 1008.3 |
| 20260509195322 | 32 | 337 | 1.6 | 1.6 | 0.00 | 0.03 | 0.03 | 55 | 1008.2 |
| 20260509194822 | 32 | 150 | 3.2 | 3.2 | 0.00 | 0.03 | 0.03 | 55 | 1008.3 |
| 20260509194319 | 31 | 125 | 1.6 | 3.2 | 0.00 | 0.03 | 0.03 | 58 | 1008.5 |
| 20260509193815 | 31 | 173 | 6.4 | 9.7 | 0.00 | 0.03 | 0.03 | 57 | 1008.4 |
| 20260509193315 | 32 | 78 | 3.2 | 3.2 | 0.00 | 0.03 | 0.03 | 58 | 1008.5 |
| 20260509192812 | 31 | 1 | 1.6 | 1.6 | 0.00 | 0.03 | 0.03 | 57 | 1008.6 |
| 20260509192308 | 32 | 208 | 3.2 | 3.2 | 0.00 | 0.03 | 0.03 | 55 | 1008.7 |
| 20260509191803 | 32 | 197 | 6.4 | 8.0 | 0.00 | 0.03 | 0.03 | 58 | 1009.1 |
| 20260509191259 | 32 | 314 | 3.2 | 3.2 | 0.00 | 0.03 | 0.03 | 56 | 1009.1 |
| 20260509190755 | 32 | 98 | 1.6 | 3.2 | 0.00 | 0.03 | 0.03 | 56 | 1009.3 |
| 20260509190253 | 31 | 213 | 1.6 | 1.6 | 0.00 | 0.03 | 0.03 | 58 | 1009.3 |
| 20260509185750 | 30 | 51 | 1.6 | 1.6 | 0.00 | 0.03 | 0.03 | 61 | 1009.2 |
| 20260509185246 | 32 | 350 | 1.6 | 1.6 | 0.00 | 0.03 | 0.03 | 59 | 1009.4 |
| 20260509184743 | 30 | 159 | 1.6 | 3.2 | 0.00 | 0.03 | 0.03 | 65 | 1009.1 |
| 20260509184241 | 29 | 317 | 4.8 | 4.8 | 0.00 | 0.03 | 0.03 | 65 | 1009.3 |
| 20260509183737 | 30 | 260 | 4.8 | 8.0 | 0.00 | 0.03 | 0.03 | 66 | 1009.2 |
| 20260509183232 | 31 | 152 | 4.8 | 4.8 | 0.00 | 0.03 | 0.03 | 63 | 1009.3 |
| 20260509182727 | 31 | 198 | 6.4 | 9.7 | 0.00 | 0.03 | 0.03 | 62 | 1009.3 |
| 20260509182226 | 31 | 233 | 3.2 | 4.8 | 0.00 | 0.03 | 0.03 | 61 | 1009.4 |
| 20260509181723 | 31 | 244 | 4.8 | 4.8 | 0.00 | 0.03 | 0.03 | 62 | 1009.3 |
| 20260509181220 | 31 | 352 | 1.6 | 3.2 | 0.00 | 0.03 | 0.03 | 62 | 1009.6 |
| 20260509180717 | 31 | 306 | 1.6 | 1.6 | 0.00 | 0.03 | 0.03 | 64 | 1009.5 |
| 20260509180213 | 30 | 115 | 4.8 | 4.8 | 0.00 | 0.03 | 0.03 | 64 | 1009.6 |
| 20260509175710 | 30 | 283 | 3.2 | 3.2 | 0.00 | 0.03 | 0.03 | 66 | 1009.8 |
| 20260509175206 | 29 | 234 | 6.4 | 9.7 | 0.00 | 0.03 | 0.03 | 68 | 1009.8 |
| 20260509174702 | 29 | 245 | 4.8 | 8.0 | 0.00 | 0.03 | 0.03 | 68 | 1009.8 |
| 20260509174157 | 30 | 296 | 4.8 | 8.0 | 0.00 | 0.03 | 0.03 | 68 | 1010.3 |
| 20260509173653 | 29 | 265 | 3.2 | 4.8 | 0.00 | 0.03 | 0.03 | 70 | 1010.1 |
| 20260509173149 | 29 | 229 | 1.6 | 3.2 | 0.00 | 0.03 | 0.03 | 70 | 1010.2 |
| 20260509172646 | 29 | 15 | 3.2 | 4.8 | 0.00 | 0.03 | 0.03 | 71 | 1010.2 |
| 20260509172142 | 29 | 15 | 3.2 | 4.8 | 0.00 | 0.03 | 0.03 | 71 | 1010.0 |
| 20260509171638 | 29 | 274 | 6.4 | 9.7 | 0.00 | 0.03 | 0.03 | 70 | 1010.3 |
| 20260509171134 | 29 | 274 | 6.4 | 9.7 | 0.00 | 0.03 | 0.03 | 70 | 1010.5 |
| 20260509170631 | 28 | 275 | 4.8 | 8.0 | 0.00 | 0.03 | 0.03 | 74 | 1010.0 |
| 20260509170127 | 28 | 275 | 4.8 | 8.0 | 0.00 | 0.03 | 0.03 | 74 | 1010.0 |
| 20260509165625 | 28 | 147 | 4.8 | 4.8 | 0.00 | 0.03 | 0.03 | 72 | 1010.3 |
| 20260509165121 | 28 | 239 | 4.8 | 4.8 | 0.00 | 0.03 | 0.03 | 74 | 1010.3 |
| 20260509164617 | 28 | 215 | 1.6 | 3.2 | 0.00 | 0.03 | 0.03 | 74 | 1010.1 |
| 20260509164113 | 27 | 247 | 1.6 | 1.6 | 0.00 | 0.03 | 0.03 | 75 | 1010.3 |
| 20260509163611 | 27 | 268 | 4.8 | 4.8 | 0.00 | 0.03 | 0.03 | 79 | 1010.2 |
| 20260509163106 | 27 | 268 | 4.8 | 4.8 | 0.00 | 0.03 | 0.03 | 79 | 1010.5 |
| 20260509162604 | 27 | 265 | 4.8 | 4.8 | 0.00 | 0.03 | 0.03 | 82 | 1010.5 |
| 20260509162059 | 25 | 111 | 1.6 | 3.2 | 0.00 | 0.03 | 0.03 | 92 | 1010.4 |
| 20260509161551 | 25 | 111 | 1.6 | 3.2 | 0.00 | 0.03 | 0.03 | 92 | 1010.4 |
| 20260509161051 | 23 | 107 | 1.6 | 1.6 | 0.00 | 0.03 | 0.03 | 96 | 1010.3 |
| 20260509160547 | 23 | 118 | 1.6 | 3.2 | 0.00 | 0.03 | 0.03 | 97 | 1010.6 |
| 20260509160042 | 23 | 291 | 3.2 | 3.2 | 0.00 | 0.03 | 0.03 | 97 | 1010.4 |
| 20260509155539 | 23 | 14 | 3.2 | 3.2 | 0.00 | 0.03 | 0.03 | 98 | 1010.5 |
| 20260509155035 | 23 | 119 | 3.2 | 4.8 | 0.00 | 0.03 | 0.03 | 98 | 1010.3 |
| 20260509154531 | 23 | 108 | 1.6 | 1.6 | 0.00 | 0.03 | 0.03 | 99 | 1010.5 |
| 20260509154029 | 23 | 136 | 4.8 | 8.0 | 0.00 | 0.03 | 0.03 | 99 | 1010.5 |
| 20260509153526 | 22 | 153 | 3.2 | 3.2 | 0.18 | 0.03 | 0.03 | 99 | 1010.6 |
| 20260509153023 | 22 | 165 | 6.4 | 8.0 | 0.18 | 0.03 | 0.03 | 99 | 1010.3 |
| 20260509152518 | 22 | 147 | 6.4 | 11.3 | 0.00 | 0.00 | 0.00 | 99 | 1010.1 |
| 20260509152015 | 22 | 178 | 6.4 | 8.0 | 0.00 | 0.00 | 0.00 | 99 | 1010.2 |
| 20260509151512 | 22 | 136 | 3.2 | 3.2 | 0.00 | 0.00 | 0.00 | 99 | 1010.7 |
| 20260509151010 | 22 | 307 | 1.6 | 3.2 | 0.00 | 0.00 | 0.00 | 99 | 1011.0 |
| 20260509150507 | 22 | 102 | 1.6 | 1.6 | 0.00 | 0.00 | 0.00 | 99 | 1010.7 |
| 20260509150006 | 22 | 130 | 3.2 | 3.2 | 0.00 | 0.00 | 0.00 | 99 | 1010.8 |
| 20260509145501 | 22 | 75 | 0.0 | 1.6 | 0.00 | 0.00 | 0.00 | 99 | 1011.1 |
| 20260509144956 | 21 | 78 | 0.0 | 1.6 | 0.00 | 0.00 | 0.00 | 99 | 1010.9 |
| 20260509144453 | 21 | 91 | 0.0 | 1.6 | 0.00 | 0.00 | 0.00 | 99 | 1010.8 |
| 20260509143950 | 21 | 94 | 1.6 | 1.6 | 0.00 | 0.00 | 0.00 | 99 | 1011.0 |
| 20260509143447 | 21 | 121 | 3.2 | 3.2 | 0.00 | 0.00 | 0.00 | 99 | 1011.0 |
| 20260509142944 | 21 | 71 | 0.0 | 0.0 | 0.00 | 0.00 | 0.00 | 99 | 1010.9 |
| 20260509142440 | 21 | 61 | 0.0 | 0.0 | 0.00 | 0.00 | 0.00 | 99 | 1011.0 |
| 20260509141936 | 21 | 61 | 0.0 | 0.0 | 0.00 | 0.00 | 0.00 | 99 | 1010.9 |
| 20260509141433 | 21 | 57 | 0.0 | 0.0 | 0.00 | 0.00 | 0.00 | 99 | 1010.6 |
| 20260509140930 | 21 | 51 | 0.0 | 0.0 | 0.00 | 0.00 | 0.00 | 99 | 1010.3 |
| 20260509140426 | 21 | 52 | 0.0 | 0.0 | 0.00 | 0.00 | 0.00 | 99 | 1010.2 |
| 20260509135924 | 21 | 58 | 0.0 | 0.0 | 0.00 | 0.00 | 0.00 | 99 | 1010.0 |
| 20260509135421 | 21 | 56 | 0.0 | 0.0 | 0.00 | 0.00 | 0.00 | 99 | 1009.7 |
| 20260509134919 | 21 | 56 | 0.0 | 0.0 | 0.00 | 0.00 | 0.00 | 99 | 1009.6 |
| 20260509134416 | 21 | 55 | 0.0 | 0.0 | 0.00 | 0.00 | 0.00 | 99 | 1009.8 |
| 20260509133913 | 21 | 59 | 0.0 | 0.0 | 0.00 | 0.00 | 0.00 | 99 | 1010.0 |
| 20260509133409 | 21 | 74 | 0.0 | 0.0 | 0.00 | 0.00 | 0.00 | 99 | 1010.3 |
| 20260509132908 | 21 | 94 | 0.0 | 1.6 | 0.00 | 0.00 | 0.00 | 99 | 1009.8 |
| 20260509132406 | 21 | 96 | 1.6 | 1.6 | 0.00 | 0.00 | 0.00 | 99 | 1010.2 |
| 20260509131903 | 21 | 50 | 0.0 | 0.0 | 0.00 | 0.00 | 0.00 | 99 | 1010.2 |
| 20260509131400 | 21 | 46 | 0.0 | 0.0 | 0.00 | 0.00 | 0.00 | 99 | 1010.2 |
| 20260509130856 | 21 | 47 | 0.0 | 0.0 | 0.00 | 0.00 | 0.00 | 99 | 1010.1 |
| 20260509130351 | 21 | 45 | 0.0 | 0.0 | 0.00 | 0.00 | 0.00 | 99 | 1010.3 |
| 20260509125849 | 21 | 47 | 0.0 | 0.0 | 0.00 | 0.00 | 0.00 | 99 | 1009.8 |
| 20260509125345 | 21 | 126 | 1.6 | 3.2 | 0.00 | 0.00 | 0.00 | 99 | 1009.8 |
| 20260509124841 | 21 | 87 | 0.0 | 0.0 | 0.00 | 0.00 | 0.00 | 99 | 1009.8 |
| 20260509124338 | 21 | 112 | 1.6 | 1.6 | 0.00 | 0.00 | 0.00 | 99 | 1009.6 |
| 20260509123836 | 21 | 73 | 0.0 | 0.0 | 0.00 | 0.00 | 0.00 | 99 | 1009.6 |
| 20260509123333 | 21 | 52 | 0.0 | 0.0 | 0.00 | 0.00 | 0.00 | 99 | 1010.0 |
| 20260509122828 | 21 | 65 | 0.0 | 0.0 | 0.00 | 0.00 | 0.00 | 99 | 1010.0 |
| 20260509122326 | 21 | 28 | 0.0 | 1.6 | 0.00 | 0.00 | 0.00 | 99 | 1009.8 |
| 20260509121823 | 21 | 60 | 0.0 | 1.6 | 0.00 | 0.00 | 0.00 | 99 | 1010.0 |
| 20260509121320 | 21 | 55 | 0.0 | 0.0 | 0.00 | 0.00 | 0.00 | 99 | 1010.0 |
| 20260509120818 | 21 | 53 | 0.0 | 0.0 | 0.00 | 0.00 | 0.00 | 99 | 1010.2 |
| 20260509120316 | 21 | 49 | 0.0 | 0.0 | 0.00 | 0.00 | 0.00 | 99 | 1010.1 |
| 20260509115814 | 21 | 49 | 0.0 | 0.0 | 0.00 | 0.00 | 0.00 | 99 | 1010.4 |
| 20260509115310 | 21 | 56 | 0.0 | 0.0 | 0.00 | 0.00 | 0.00 | 99 | 1010.4 |
| 20260509114809 | 21 | 58 | 0.0 | 0.0 | 0.00 | 0.00 | 0.00 | 99 | 1010.4 |
| 20260509114307 | 21 | 64 | 0.0 | 0.0 | 0.00 | 0.00 | 0.00 | 99 | 1010.4 |
| 20260509113806 | 21 | 65 | 0.0 | 0.0 | 0.00 | 0.00 | 0.00 | 99 | 1010.1 |
| 20260509113302 | 21 | 96 | 0.0 | 0.0 | 0.00 | 0.00 | 0.00 | 99 | 1010.1 |
| 20260509112759 | 21 | 106 | 1.6 | 3.2 | 0.00 | 0.00 | 0.00 | 99 | 1010.2 |
| 20260509112256 | 21 | 51 | 0.0 | 0.0 | 0.00 | 0.00 | 0.00 | 99 | 1010.3 |
| 20260509111753 | 21 | 72 | 1.6 | 1.6 | 0.00 | 0.00 | 0.00 | 99 | 1010.0 |
| 20260509111250 | 21 | 57 | 0.0 | 0.0 | 0.00 | 0.00 | 0.00 | 99 | 1010.1 |
| 20260509110747 | 21 | 51 | 0.0 | 0.0 | 0.00 | 0.00 | 0.00 | 99 | 1009.6 |
| 20260509110244 | 21 | 53 | 0.0 | 0.0 | 0.00 | 0.00 | 0.00 | 99 | 1009.7 |
| 20260509105742 | 21 | 44 | 0.0 | 0.0 | 0.00 | 0.00 | 0.00 | 99 | 1009.2 |
| 20260509105239 | 21 | 53 | 0.0 | 0.0 | 0.00 | 0.00 | 0.00 | 99 | 1009.6 |
| 20260509104736 | 21 | 43 | 0.0 | 0.0 | 0.00 | 0.00 | 0.00 | 99 | 1009.7 |
| 20260509104233 | 21 | 68 | 0.0 | 0.0 | 0.00 | 0.00 | 0.00 | 99 | 1009.5 |
| 20260509103731 | 21 | 61 | 0.0 | 0.0 | 0.00 | 0.00 | 0.00 | 99 | 1009.6 |
| 20260509103228 | 21 | 53 | 0.0 | 0.0 | 0.00 | 0.00 | 0.00 | 99 | 1009.7 |
| 20260509102726 | 21 | 45 | 0.0 | 0.0 | 0.00 | 0.00 | 0.00 | 99 | 1009.7 |
| 20260509102223 | 21 | 44 | 0.0 | 0.0 | 0.00 | 0.00 | 0.00 | 99 | 1010.0 |
| 20260509101719 | 21 | 47 | 0.0 | 0.0 | 0.00 | 0.00 | 0.00 | 99 | 1010.0 |
| 20260509101216 | 21 | 56 | 0.0 | 0.0 | 0.00 | 0.00 | 0.00 | 99 | 1009.6 |
| 20260509100713 | 21 | 58 | 0.0 | 0.0 | 0.00 | 0.00 | 0.00 | 99 | 1009.6 |
| 20260509100210 | 21 | 58 | 0.0 | 0.0 | 0.00 | 0.00 | 0.00 | 99 | 1009.2 |
| 20260509095707 | 21 | 53 | 0.0 | 0.0 | 0.00 | 0.00 | 0.00 | 99 | 1009.3 |
| 20260509095204 | 21 | 71 | 0.0 | 0.0 | 0.00 | 0.00 | 0.00 | 99 | 1009.3 |
| 20260509094701 | 21 | 72 | 0.0 | 0.0 | 0.00 | 0.00 | 0.00 | 99 | 1009.4 |
| 20260509094158 | 21 | 57 | 0.0 | 0.0 | 0.00 | 0.00 | 0.00 | 99 | 1009.2 |
| 20260509093656 | 21 | 52 | 0.0 | 0.0 | 0.00 | 0.00 | 0.00 | 99 | 1009.1 |
| 20260509093153 | 21 | 57 | 0.0 | 0.0 | 0.00 | 0.00 | 0.00 | 99 | 1009.0 |
| 20260509092651 | 21 | 67 | 0.0 | 0.0 | 0.00 | 0.00 | 0.00 | 99 | 1009.1 |
| 20260509092149 | 21 | 73 | 0.0 | 0.0 | 0.00 | 0.00 | 0.00 | 99 | 1009.0 |
| 20260509091647 | 21 | 73 | 0.0 | 0.0 | 0.00 | 0.00 | 0.00 | 99 | 1008.9 |
| 20260509091143 | 21 | 74 | 0.0 | 0.0 | 0.00 | 0.00 | 0.00 | 99 | 1009.2 |
| 20260509090641 | 21 | 74 | 0.0 | 0.0 | 0.00 | 0.00 | 0.00 | 99 | 1009.0 |
| 20260509090138 | 21 | 85 | 0.0 | 0.0 | 0.00 | 0.00 | 0.00 | 99 | 1008.7 |
| 20260509085635 | 21 | 80 | 0.0 | 0.0 | 0.00 | 0.00 | 0.00 | 99 | 1008.6 |
| 20260509085131 | 21 | 83 | 0.0 | 0.0 | 0.00 | 0.00 | 0.00 | 99 | 1008.6 |
| 20260509084628 | 21 | 117 | 1.6 | 1.6 | 0.00 | 0.00 | 0.00 | 98 | 1008.7 |
| 20260509084125 | 21 | 87 | 0.0 | 0.0 | 0.00 | 0.00 | 0.00 | 98 | 1008.7 |
| 20260509083623 | 21 | 209 | 0.0 | 1.6 | 0.00 | 0.00 | 0.00 | 98 | 1008.9 |